#timestamp,LO_Frequency,Hit,StdDev 
1584198015.8,286046998.3,N
1584198035.7,286046999.0,N
1584198055.5,286046998.9,N
1584198075.3,286046998.1,N
1584198095.2,286047000.2,N
1584198115.0,286046999.9,N
1584198115.9,286046999.9,N
1584198135.7,286046999.7,N
1584198155.6,286046999.7,N
1584198175.4,286047001.9,N
1584198195.3,286047001.4,N
1584198215.1,286047000.2,N
1584198216.0,286047000.2,N
1584198235.8,286047001.5,N
1584198255.7,286047002.6,N
1584198275.5,286047001.7,N
1584198295.4,286047001.3,N
1584198315.2,286047001.6,N
1584198335.0,286047004.2,N
1584198335.9,286047004.2,N
1584198355.8,286047004.4,N
1584198375.6,286047003.5,N
1584198395.4,286047003.3,N
1584198415.3,286047004.0,N
1584198435.1,286047004.1,N
1584198455.9,286047003.0,N
1584198475.7,286047005.4,N
1584198495.5,286047005.5,N
1584198515.4,286047004.9,N
1584198535.2,286047004.7,N
1584198555.1,286047004.9,N
1584198556.0,286047004.9,N
1584198575.8,286047006.7,Y
1584198595.6,286047005.7,P
1584198615.5,286047007.5,P
1584198635.3,286047004.9,N
1584198655.2,286047007.5,Y
1584198675.0,286047002.4,P
1584198675.9,286047002.4,N
1584198695.7,286047000.2,N
1584198715.6,286047002.4,N
1584198735.4,286047001.6,N
1584198755.3,286047001.5,N
1584198775.1,286047001.4,N
1584198795.8,286047001.5,N
1584198815.7,286047002.3,N
1584198835.5,286047002.3,N
1584198855.4,286047002.4,N
1584198875.2,286047001.4,N
1584198895.0,286047002.0,N
1584198895.9,286047002.0,N
1584198915.8,286047002.0,N
1584198935.6,286047004.3,Y
1584198955.5,286047000.4,P
1584198975.3,286047000.2,N
1584198995.1,286047000.1,N
1584199015.9,286047000.1,N
1584199035.7,286047001.3,N
1584199055.5,286047003.8,Y
1584199075.4,286047003.6,P
1584199095.2,286047002.1,N
1584199115.1,286047001.5,N
1584199116.0,286047001.5,N
1584199135.8,286047002.1,N
1584199155.6,286047002.3,N
1584199175.5,286047002.0,N
1584199195.3,286047002.2,N
1584199215.2,286047001.5,N
1584199235.9,286047002.5,Y
1584199255.7,286046999.7,P
1584199275.6,286047000.3,N
1584199295.4,286047002.8,N
1584199315.2,286046999.8,N
1584199335.1,286047001.9,N
1584199336.0,286047001.9,N
1584199355.8,286047002.1,N
1584199375.7,286047002.4,N
1584199395.5,286047002.3,N
1584199415.3,286047002.6,N
1584199435.2,286047002.8,N
1584199455.0,286047001.3,N
1584199455.9,286047001.3,N
1584199475.8,286047002.3,N
1584199495.6,286047002.2,N
1584199515.4,286047001.9,N
1584199535.3,286047003.0,Y
1584199555.1,286047001.6,P
1584199575.9,286047001.4,P
1584199595.7,286047003.7,P
1584199615.5,286047003.5,Y
1584199635.4,286047001.6,P
1584199655.2,286047002.5,P
1584199675.0,286047002.7,P
1584199676.0,286047002.7,Y
1584199695.8,286046998.4,P
1584199715.6,286046998.9,N
1584199735.5,286046998.6,N
1584199755.3,286046999.0,N
1584199775.1,286047000.9,N
1584199795.9,286046999.9,N
1584199815.7,286047000.9,N
1584199835.6,286047000.9,N
1584199855.4,286047010.6,Y
1584199875.2,286047020.2,P
1584199895.1,286047018.2,N
1584199896.0,286047018.2,N
1584199915.8,286047013.8,N
1584199935.6,286047010.2,N
1584199955.5,286047008.9,N
1584199975.3,286047007.0,N
1584199995.2,286047007.2,N
1584200015.9,286047006.3,N
1584200035.7,286047006.3,N
1584200055.6,286047006.6,N
1584200075.4,286047007.4,N
1584200095.3,286047007.2,N
1584200115.1,286047006.6,N
1584200116.0,286047006.6,N
1584200135.8,286047009.0,N
1584200155.7,286047008.8,N
1584200175.5,286047006.7,N
1584200195.3,286047006.6,N
1584200215.2,286047006.2,N
1584200235.0,286047007.2,N
1584200235.9,286047007.2,N
1584200255.8,286047006.9,N
1584200275.6,286047005.0,N
1584200295.4,286047004.6,N
1584200315.3,286047009.9,N
1584200335.1,286047011.0,N
1584200355.9,286047013.6,Y
1584200375.7,286047004.4,P
1584200395.5,286047003.2,N
1584200415.4,286047003.6,N
1584200435.2,286047005.7,N
1584200455.0,286047006.3,Y
1584200456.0,286047006.3,P
1584200475.8,286047001.6,N
1584200495.6,286047000.6,N
1584200515.5,286047002.4,N
1584200535.3,286047000.5,N
1584200555.1,286047002.5,N
1584200575.9,286046996.6,N
1584200595.7,286046999.1,N
1584200615.6,286047001.0,N
1584200635.4,286047000.9,N
1584200655.2,286046998.2,N
1584200675.1,286046998.9,N
1584200676.0,286046998.9,N
1584200695.8,286046999.9,N
1584200715.7,286047000.9,N
1584200735.5,286047000.5,N
1584200755.3,286047002.3,N
1584200775.2,286047001.0,N
1584200795.0,286047002.1,N
1584200795.9,286047002.1,N
1584200815.7,286047002.1,N
1584200835.6,286047000.4,N
1584200855.4,286046998.4,N
1584200875.3,286046999.3,N
1584200895.1,286047001.0,N
1584200896.0,286047001.0,N
1584200915.8,286047001.0,N
1584200935.7,286047001.8,N
1584200955.5,286047003.1,N
1584200975.4,286047005.5,N
1584200995.2,286047003.4,N
1584201015.0,286047005.0,N
1584201015.9,286047005.0,N
1584201035.8,286047005.7,N
1584201055.6,286047005.7,N
1584201075.4,286047002.9,N
1584201095.3,286047004.6,N
1584201115.1,286047003.4,N
1584201135.9,286047006.3,N
1584201155.7,286047006.9,N
1584201175.5,286047005.0,N
1584201195.4,286047006.3,N
1584201215.2,286047009.0,Y
1584201235.1,286047005.0,P
1584201236.0,286047005.0,P
1584201255.8,286047004.0,P
1584201275.6,286047005.4,Y
1584201295.5,286047001.6,P
1584201315.3,286047000.6,N
1584201335.2,286047001.0,N
1584201355.9,286047000.8,N
1584201375.7,286046998.7,N
1584201395.6,286046998.6,N
1584201415.4,286047000.6,N
1584201435.2,286047002.6,N
1584201455.1,286046999.9,N
1584201456.0,286046999.9,N
1584201475.8,286046998.3,N
1584201495.7,286047000.2,N
1584201515.5,286047002.1,N
1584201535.3,286047002.7,N
1584201555.2,286047001.9,N
1584201575.0,286047004.3,N
1584201575.9,286047004.3,N
1584201595.8,286047000.7,N
